FENGYUN 1C DEB, 31090

Orbit data source: Space-Track

FENGYUN 1C DEB, 31090 is space debris in SSO originally from a launch on Mon, 10 May 1999 UTC launched from the Taiyaun Space Center, China (TSC). Fengyun 1C debris stems from the Chinese weather satellite Fengyun-1C, which was intentionally destroyed by a Chinese anti-satellite missile in 2007. This event dramatically increased the amount of space debris, with thousands of trackable fragments posing hazards to satellites and human spaceflight. The Fengyun 1C debris cloud has become a focal point in discussions about space sustainability and the need for international regulations to prevent the creation of new debris.

Loading next visibility...
Identifier
31090, 1999-025BGL
Orbit
SSO
Country
Flag of CNCN / PRC
Related business
Manufacturer
Unknown
Mission
Spacecraft
Bus & Motor
Unknown
Mass
Unknown
Launch date (UTC)
1999-05-10 (27 years ago)
Launch vehicle
Unknown
Launch site
Taiyaun Space Center, China (TSC)
Object type
Payload
Rocket body
Debris
Shape & HBR
Unknown shape, 0.1 m
Radar Cross Section
Small (<0.1 m²)

Expand to show TLE details & history
Last TLE update: 2 days ago

TLE from 2 days ago
0 FENGYUN 1C DEB
1 31090U 99025BGL 26120.36491111  .00200879  00000-0  21261-2 0  9995
2 31090  98.9842 262.1504 0027044   0.8192 359.3101 15.63040858 29791
Epoch: 2026-04-30T08:45Z
TLE epoch observation values (Epoch: 2026-04-30T08:45:28.319Z)
Latitude
-0.00003°
Longitude
-87.53016°
Altitude
363.7 km
Speed
7.702 km/s
True Right ascension
17h 28m 36s
True Declination
0° 00' 00"
Sunlit
Object was in full shadow at epoch
Visualization orbit readout
Latitude
Unknown
Longitude
Unknown
Altitude
Unknown
Speed
Unknown
Apparent Right ascension
Unknown
Apparent Declination
Unknown
Sunlit
N/A
Visualization observer readout
Local Sidereal Time
20:04:45
Azimuth
Unknown
Elevation
Unknown
Doppler factor
Unknown
Orbital elements
Apogee altitude
394.129 km
Perigee altitude
357.598 km
Semi-major axis
6,754.001 km
Eccentricity
0.0027
Inclination
98.9842°
RAAN
262.1504°
Arg. of periapsis
0.8192°
True anomaly
359.30636°
Mean anomaly
359.3101°
Eccentric anomaly
359.30823°
Mean motion
3.91022 °/min
Orbital period
92.07 mins
BSTAR
0.0021261
Loading maneuver chart data...
Computing Atmospheric mass density...

Documentation

Showing up to 5 results
|